Regional Weather Roundup
Issued by NWS Northern Indiana

Home | Current Version | Previous Version | Graphics & Text | Print | Product List | Glossary On
Versions: 1 2 3 4 5 6 7 8 9 10 11 12 13 14 15 16 17 18 19 20 21 22 23 24 25 26 27 28 29 30 31 32 33 34 35 36 37 38 39 40 41 42 43 44 45 46 47 48 49 50
000
ASUS43 KIWX 311110
RWRIWX

KIWX WEATHER ROUNDUP
NATIONAL WEATHER SERVICE NORTHERN INDIANA
700 AM EDT THU JUL 31 2014

NOTE: "FAIR" INDICATES FEW OR NO CLOUDS BELOW 12,000 FEET WITH NO
SIGNIFICANT WEATHER AND/OR OBSTRUCTIONS TO VISIBILITY.

* THESE STATIONS ARE NOT UNDER NWS QUALITY CONTROL. THEY ALSO MAY NOT
  REPORT WEATHER SUCH AS PRECIPITATION OR FOG.

INZ001>027-311200-
NORTHERN INDIANA

CITY           SKY/WX    TMP DP  RH WIND       PRES   REMARKS
GARY*          CLEAR     61  59  94 SW7       30.04S FOG
VALPARAISO     CLEAR     57  55  93 SW3       30.05S FOG
MICHIGAN CITY* CLEAR     54  52  94 CALM      30.04R FOG
LAPORTE*       CLEAR     52  52 100 CALM      30.05R FOG
KNOX*          CLEAR     49  48  93 CALM      30.04R
SOUTH BEND     CLEAR     58  54  86 CALM      30.05R
ELKHART*       CLOUDY    54  54 100 CALM      30.04  FOG
GOSHEN         CLEAR     54  51  90 CALM      30.05R FOG
MONTICELLO*    CLEAR     55  55  99 CALM      30.05R FOG
LOGANSPORT*    FOG       52  52 100 CALM      30.07R VSB<1/4
ROCHESTER*     FOG       54  54 100 CALM      30.06S VSB 3/4
WARSAW*        CLEAR     52  52 100 CALM      30.06R FOG
ANGOLA*        MOCLDY    50  50 100 CALM      30.05R VSB 3/4
FORT WAYNE     PTCLDY    56  55  97 SW5       30.06R FOG
HUNTINGTON*      N/A     56  56 100 SW5       30.06R FOG
PERU/GRISSOM   FOG       55  55 100 CALM      30.06R VSB 1/4
MARION*        PTCLDY    52  52  98 CALM      30.08R FOG

$$
INZ028>050-311200-
CENTRAL INDIANA

CITY           SKY/WX    TMP DP  RH WIND       PRES   REMARKS
LAFAYETTE      FOG       56  55  97 W3        30.06S VSB 1/4
KOKOMO*        CLEAR     55  54  94 CALM      30.07R
MUNCIE*        CLEAR     60  57  89 CALM      30.07R FOG
INDIANAPOLIS   PTCLDY    60  58  92 W3        30.07R

$$
MIZ043>046-050>051-056>058-064>065-071>073-077>080-311200-
SOUTHWEST LOWER MICHIGAN

CITY           SKY/WX    TMP DP  RH WIND       PRES   REMARKS
BATTLE CREEK   CLEAR     56  49  77 S5        30.03R
BENTON HARBOR  CLEAR     53  52  96 CALM      30.02R FOG
COLDWATER*     CLEAR     54  53  96 CALM      30.04R
HILLSDALE*     CLEAR     50  50 100 CALM      30.04S
HOLLAND        PTCLDY    63  59  87 SW7       30.01S
GRAND RAPIDS   PTCLDY    57  52  83 SW6       30.01S
KALAMAZOO      CLEAR     54  50  86 SW6       30.03S
STURGIS*       CLEAR     52  52 100 CALM      30.04R FOG
THREE RIVERS*  FAIR      54  54 100 CALM      30.04R FOG

$$
OHZ001>008-015>018-024>025-311200-
NORTHWEST OHIO

CITY           SKY/WX    TMP DP  RH WIND       PRES   REMARKS
WAUSEON*       FAIR      48  48 100 CALM      30.05R FOG
DEFIANCE       PTCLDY    52  50  93 CALM      30.05S FOG
FINDLAY        PTCLDY    56  54  93 SW3       30.05R FOG
TOLEDO EXPRESS CLEAR     50  49  96 SW3       30.04R
TOLEDO METCALF CLEAR     54  52  93 SW6       30.05R
LIMA           FOG       61  59  93 S5        30.06S VSB 1/2

$$
&&



USA.gov is the U.S. government's official web portal to all federal, state and local government web resources and services.